• In Belarus
  • List of Countries
  • For 7 days
  • Water Temperature
  • Satellite Maps
  • Weather Map
  • Weather Widgets
  • user-avatar
    Login

    Hourly Weather Ilebo

    Today, 21 September, Friday

    Time Temperature Precipitation Wind Pressure Humidity
    00:00 +26°C° 0.2 mm 1 mps 721 mmHg 79%
    01:00 +23°C° 0.2 mm 0 mps 721 mmHg 82%
    02:00 +23°C° 0.6 mm 0 mps 721 mmHg 84%
    03:00 +23°C° 0.6 mm 0 mps 721 mmHg 85%
    04:00 +22°C° 0.6 mm 0 mps 721 mmHg 87%
    05:00 +23°C° 0.2 mm 0 mps 721 mmHg 85%
    06:00 +24°C° 0.2 mm 0 mps 721 mmHg 83%
    07:00 +25°C° 0 mm 0 mps 722 mmHg 80%
    08:00 +28°C° 0.3 mm 0 mps 723 mmHg 71%
    09:00 +32°C° 0.3 mm 1 mps 723 mmHg 61%
    10:00 +35°C° 0.3 mm 1 mps 723 mmHg 51%
    11:00 +36°C° 0 mm 1 mps 722 mmHg 48%
    12:00 +37°C° 0 mm 1 mps 722 mmHg 44%
    13:00 +39°C° 0 mm 1 mps 721 mmHg 40%
    14:00 +37°C° 0 mm 1 mps 721 mmHg 42%
    15:00 +36°C° 0 mm 1 mps 720 mmHg 45%
    16:00 +35°C° 0 mm 1 mps 720 mmHg 48%
    17:00 +33°C° 0 mm 1 mps 720 mmHg 53%
    18:00 +31°C° 0 mm 1 mps 720 mmHg 57%
    19:00 +29°C° 0 mm 1 mps 720 mmHg 62%
    20:00 +28°C° 0.1 mm 1 mps 720 mmHg 65%
    21:00 +26°C° 0.1 mm 0 mps 720 mmHg 69%
    22:00 +25°C° 0.1 mm 0 mps 720 mmHg 72%
    23:00 +24°C° 0.4 mm 0 mps 720 mmHg 76%

    Tomorrow, 22 September, Saturday

    Time Temperature Precipitation Wind Pressure Humidity
    00:00 +24°C° 0.4 mm 0 mps 720 mmHg 80%
    01:00 +23°C° 0.4 mm 0 mps 720 mmHg 84%
    02:00 +25°C° 0.5 mm 1 mps 720 mmHg 86%
    03:00 +24°C° 0.5 mm 1 mps 720 mmHg 89%
    04:00 +24°C° 0.5 mm 1 mps 721 mmHg 91%
    05:00 +25°C° 0.2 mm 1 mps 721 mmHg 90%
    06:00 +25°C° 0.2 mm 1 mps 722 mmHg 89%
    07:00 +26°C° 0.2 mm 1 mps 722 mmHg 88%
    08:00 +29°C° 0 mm 1 mps 722 mmHg 76%
    09:00 +32°C° 0 mm 1 mps 723 mmHg 64%
    10:00 +34°C° 0 mm 0 mps 723 mmHg 52%
    11:00 +37°C° 0 mm 1 mps 722 mmHg 47%
    12:00 +39°C° 0 mm 1 mps 721 mmHg 43%
    13:00 +40°C° 0 mm 1 mps 721 mmHg 38%
    14:00 +36°C° 0 mm 0 mps 720 mmHg 41%
    15:00 +34°C° 0 mm 0 mps 720 mmHg 44%
    16:00 +33°C° 0 mm 0 mps 719 mmHg 47%
    17:00 +31°C° 0 mm 0 mps 719 mmHg 51%
    18:00 +30°C° 0 mm 0 mps 720 mmHg 55%
    19:00 +30°C° 0 mm 1 mps 720 mmHg 59%
    20:00 +29°C° 0 mm 1 mps 720 mmHg 63%
    21:00 +28°C° 0 mm 1 mps 720 mmHg 67%
    22:00 +28°C° 0 mm 1 mps 720 mmHg 70%
    23:00 +27°C° 0.3 mm 1 mps 720 mmHg 76%

    Day after tomorrow, 23 September, Sunday

    Time Temperature Precipitation Wind Pressure Humidity
    00:00 +26°C° 0.3 mm 1 mps 720 mmHg 81%
    01:00 +25°C° 0.3 mm 1 mps 720 mmHg 86%
    02:00 +25°C° 1.3 mm 1 mps 720 mmHg 89%
    03:00 +25°C° 1.3 mm 1 mps 720 mmHg 92%
    04:00 +24°C° 1.3 mm 1 mps 720 mmHg 95%
    05:00 +25°C° 0.3 mm 1 mps 721 mmHg 94%
    06:00 +26°C° 0.3 mm 1 mps 722 mmHg 92%
    07:00 +24°C° 0.3 mm 0 mps 722 mmHg 91%
    08:00 +26°C° 0.6 mm 0 mps 723 mmHg 83%
    09:00 +28°C° 0.6 mm 0 mps 723 mmHg 74%
    10:00 +32°C° 0.6 mm 1 mps 723 mmHg 66%
    11:00 +34°C° 0.6 mm 1 mps 722 mmHg 60%
    12:00 +36°C° 0.6 mm 1 mps 722 mmHg 54%
    13:00 +37°C° 0.6 mm 1 mps 721 mmHg 48%
    14:00 +36°C° 0.1 mm 1 mps 721 mmHg 51%
    15:00 +34°C° 0.1 mm 1 mps 720 mmHg 55%
    16:00 +34°C° 0.1 mm 2 mps 720 mmHg 59%
    17:00 +31°C° 0.1 mm 2 mps 720 mmHg 65%
    18:00 +29°C° 0.1 mm 2 mps 720 mmHg 71%
    19:00 +27°C° 0.1 mm 3 mps 720 mmHg 77%
    20:00 +27°C° 0.3 mm 2 mps 721 mmHg 80%
    21:00 +26°C° 0.3 mm 2 mps 721 mmHg 84%
    22:00 +25°C° 0.3 mm 1 mps 722 mmHg 88%
    23:00 +25°C° 0.1 mm 1 mps 722 mmHg 89%

    24 September, Monday

    Time Temperature Precipitation Wind Pressure Humidity
    00:00 +25°C° 0.1 mm 1 mps 721 mmHg 90%
    01:00 +24°C° 0.1 mm 1 mps 721 mmHg 91%
    02:00 +24°C° 0.2 mm 1 mps 721 mmHg 92%
    03:00 +22°C° 0.2 mm 0 mps 722 mmHg 93%
    04:00 +22°C° 0.2 mm 0 mps 722 mmHg 94%
    05:00 +24°C° 0.3 mm 1 mps 722 mmHg 94%
    06:00 +24°C° 0.3 mm 1 mps 723 mmHg 94%
    07:00 +24°C° 0.3 mm 1 mps 724 mmHg 94%
    08:00 +26°C° 0.3 mm 1 mps 724 mmHg 88%
    09:00 +27°C° 0.3 mm 1 mps 724 mmHg 83%
    10:00 +27°C° 0.3 mm 0 mps 725 mmHg 78%
    11:00 +30°C° 0.3 mm 1 mps 724 mmHg 72%
    12:00 +31°C° 0.3 mm 2 mps 722 mmHg 66%
    13:00 +32°C° 0.3 mm 2 mps 721 mmHg 60%
    14:00 +32°C° 0 mm 2 mps 721 mmHg 59%
    15:00 +32°C° 0 mm 1 mps 721 mmHg 58%
    16:00 +32°C° 0 mm 1 mps 720 mmHg 57%
    17:00 +30°C° 0 mm 1 mps 721 mmHg 65%
    18:00 +28°C° 0 mm 1 mps 721 mmHg 72%
    19:00 +26°C° 0 mm 1 mps 722 mmHg 80%
    20:00 +26°C° 0.3 mm 1 mps 722 mmHg 81%
    21:00 +23°C° 0.3 mm 0 mps 722 mmHg 83%
    22:00 +23°C° 0.3 mm 0 mps 722 mmHg 85%
    23:00 +23°C° 0 mm 0 mps 722 mmHg 86%

    25 September, Tuesday

    Time Temperature Precipitation Wind Pressure Humidity
    00:00 +23°C° 0 mm 0 mps 722 mmHg 87%
    01:00 +22°C° 0 mm 0 mps 721 mmHg 87%
    02:00 +24°C° 0 mm 1 mps 721 mmHg 88%
    03:00 +24°C° 0 mm 1 mps 721 mmHg 89%
    04:00 +24°C° 0 mm 1 mps 722 mmHg 89%
    05:00 +25°C° 0.6 mm 1 mps 722 mmHg 88%
    06:00 +25°C° 0.6 mm 1 mps 723 mmHg 88%
    07:00 +26°C° 0.6 mm 1 mps 724 mmHg 87%
    08:00 +27°C° 1.5 mm 1 mps 724 mmHg 85%
    09:00 +28°C° 1.5 mm 1 mps 724 mmHg 82%
    10:00 +29°C° 1.5 mm 1 mps 724 mmHg 80%
    11:00 +28°C° 0.5 mm 0 mps 723 mmHg 74%
    12:00 +29°C° 0.5 mm 0 mps 722 mmHg 68%
    13:00 +30°C° 0.5 mm 0 mps 722 mmHg 62%
    14:00 +29°C° 0.1 mm 0 mps 721 mmHg 65%
    15:00 +28°C° 0.1 mm 0 mps 721 mmHg 67%
    16:00 +30°C° 0.1 mm 1 mps 721 mmHg 70%
    17:00 +28°C° 0 mm 1 mps 721 mmHg 74%
    18:00 +25°C° 0 mm 0 mps 721 mmHg 78%
    19:00 +24°C° 0 mm 0 mps 722 mmHg 83%
    20:00 +23°C° 0 mm 0 mps 722 mmHg 84%
    21:00 +23°C° 0 mm 0 mps 722 mmHg 86%
    22:00 +22°C° 0 mm 0 mps 722 mmHg 87%
    23:00 +22°C° 0 mm 0 mps 721 mmHg 89%

    26 September, Wednesday

    Time Temperature Precipitation Wind Pressure Humidity
    00:00 +22°C° 0 mm 0 mps 721 mmHg 90%
    01:00 +21°C° 0 mm 0 mps 721 mmHg 92%
    02:00 +21°C° 0.1 mm 0 mps 721 mmHg 92%
    03:00 +21°C° 0.1 mm 0 mps 721 mmHg 93%
    04:00 +21°C° 0.1 mm 0 mps 721 mmHg 94%
    05:00 +22°C° 0 mm 0 mps 722 mmHg 90%
    06:00 +23°C° 0 mm 0 mps 723 mmHg 86%
    07:00 +26°C° 0 mm 1 mps 723 mmHg 82%
    08:00 +29°C° 0.1 mm 1 mps 723 mmHg 72%
    09:00 +30°C° 0.1 mm 0 mps 723 mmHg 62%
    10:00 +33°C° 0.1 mm 0 mps 724 mmHg 53%
    11:00 +33°C° 1.3 mm 0 mps 723 mmHg 51%
    12:00 +33°C° 1.3 mm 0 mps 721 mmHg 50%
    13:00 +35°C° 1.3 mm 1 mps 720 mmHg 49%
    14:00 +34°C° 0 mm 1 mps 720 mmHg 51%
    15:00 +32°C° 0 mm 0 mps 720 mmHg 53%
    16:00 +31°C° 0 mm 0 mps 720 mmHg 56%
    17:00 +31°C° 0.7 mm 1 mps 720 mmHg 62%
    18:00 +29°C° 0.7 mm 1 mps 721 mmHg 69%
    19:00 +27°C° 0.7 mm 1 mps 721 mmHg 76%
    20:00 +26°C° 2.4 mm 1 mps 721 mmHg 81%
    21:00 +26°C° 2.4 mm 1 mps 721 mmHg 86%
    22:00 +25°C° 2.4 mm 2 mps 722 mmHg 92%
    23:00 +25°C° 0.2 mm 1 mps 721 mmHg 91%
    Show more